Simultaneous Nadir Overpasses (SNOs) Predictions

Prediction of SNOs between AQUA and NOAA-19 Satellite Orbit:

Table of predicted SNOs for the next 14.0 days since TLE Epoch: 9/1/2013
Index Date (AQUA) Time (AQUA) Lat,Lon (AQUA) SZA (AQUA ) Date (NOAA-19) Time (NOAA-19) Lat,Lon (NOAA-19) SZA (NOAA-19 ) Distance(km) Time Diff (sec)
1 09/01/2013 16:28:32 -59.88, 122.45 127.81 09/01/2013 16:28:27 -59.88, 122.47 127.81 1.05 5
2 09/03/2013 21:12:55 -60.39, 51.05 126.53 09/03/2013 21:12:51 -60.39, 51.05 126.52 0.16 4
3 09/06/2013 01:57:15 -60.73, -20.24 125.38 09/06/2013 01:57:12 -60.73, -20.26 125.38 0.64 3
4 09/08/2013 06:41:31 -60.86, -91.39 124.42 09/08/2013 06:41:29 -60.86, -91.40 124.42 0.37 2
5 09/10/2013 10:45:47 79.74, -85.19 87.60 09/10/2013 10:44:35 79.02, -82.47 87.31 97.60 72
6 09/10/2013 11:25:44 -60.83,-162.43 123.61 09/10/2013 11:25:43 -60.83,-162.42 123.60 0.64 1
7 09/12/2013 15:29:07 81.30,-138.86 85.43 09/12/2013 15:27:55 80.54,-137.35 85.18 88.08 72
8 09/12/2013 16:10:11 -61.63, 125.95 122.02 09/12/2013 16:10:12 -61.63, 125.91 122.01 2.15 1
9 09/14/2013 20:12:23 81.83, 173.65 83.08 09/14/2013 20:11:10 81.14, 173.54 82.82 77.10 73




NCC Satellite Simultaneous Nadir Overpasses (SNOs) Prediction Service
